Location: ??
(35.5052°N, 139.7262°E)
Time: 18:21:45
(UTC+00:00)

Cosmos 1726 Rocket - Pass Details

Date: 20 June 2021
Orbit: 602 x 630 km, 82.5° (Epoch: 29 July)

Event Time Altitude Azimuth Distance (km) Brightness Sun altitude
Rises 13:15:56 0° 356° (N) 2,923 8.1 -27.6°
Reaches altitude 10° 13:18:12 10° 358° (N) 2,009 7.0 -27.7°
Enters shadow 13:21:28 46° 16° (NNE) 840 4.4 -28.0°
